Showing default

HAWK-2B, 47508

Orbit data source: Space-Track

HAWK-2B, 47508 is a payload satellite owned by HawkEye 360 (US) in SSO that was launched on Sun, 24 Jan 2021 UTC via an FALCON 9 launch vehicle from the Air Force Eastern Test Range (AFETR). Payload-class satellites include a variety of spacecraft equipped with specific instruments for various scientific and technological missions. These include communications satellites like Starlink; space stations such as the ISS; scientific satellites like the Hubble; Earth observation satellites from companies like Planet Labs, Umbra, and HawkEye 360; GPS; miniature CubeSats for education and research; and military/defense satellites.

Loading next visibility...
Identifier
47508, 2021-006CZ
Orbit
SSO
Country
Flag of USUS
Related business
Manufacturer
UTIAS-SFL
Mission
Operational Commercial Sigint
Bus & Motor
DEFIANT, Unknown motor
Mass
31 kg wet, 30 kg dry
Launch date (UTC)
2021-01-24 (6 years ago)
Launch vehicle
FALCON 9
Launch site
Air Force Eastern Test Range (AFETR)
Object type
Payload
Rocket body
Debris
Shape & HBR
Box + 2 Pan, 1.0 m
Radar Cross Section
0.348 m², Medium (>0.1 m² and < 1m²)

Expand to show TLE details & history
Last TLE update: 10 hours ago

TLE from 10 hours ago
0 HAWK-2B
1 47508U 21006CZ  26207.58897986  .00007901  00000-0  23269-3 0  9992
2 47508  97.2175 250.0902 0008535  70.4452 289.7712 15.35275108305548
Epoch: 2026-07-26T14:08Z
TLE epoch observation values (Epoch: 2026-07-26T14:08:07.859Z)
Latitude
-0.00013°
Longitude
93.77273°
Altitude
461.25 km
Speed
7.637 km/s
True Right ascension
16h 40m 21s
True Declination
0° 00' 00"
Sunlit
Object was in full shadow at epoch
Visualization orbit readout
Latitude
Unknown
Longitude
Unknown
Altitude
Unknown
Speed
Unknown
Apparent Right ascension
Unknown
Apparent Declination
Unknown
Sunlit
N/A
Visualization observer readout
Local Sidereal Time
13:24:35
Azimuth
Unknown
Elevation
Unknown
Doppler factor
Unknown
Orbital elements
Apogee altitude
462.875 km
Perigee altitude
451.207 km
Semi-major axis
6,835.178 km
Eccentricity
0.00085
Inclination
97.2175°
RAAN
250.0902°
Arg. of periapsis
70.4452°
True anomaly
289.67913°
Mean anomaly
289.7712°
Eccentric anomaly
289.72517°
Mean motion
3.84077 °/min
Orbital period
93.73 mins
BSTAR
0.00023269
Loading maneuver chart data...
Computing Atmospheric mass density...

Documentation

Showing up to 5 results
|